Temp_Advection
nan nan nan nan nan nan nan nan nan nan nan nan nan nan nan nan nan nan nan nan nan nan nan nan nan nan nan nan nan nan nan nan nan nan nan nan nan nan nan nan nan nan nan
nan 0 0 0 0 0 0 0 0 0 -0 -0 -0 0 -0 -0 -0 -1 -1 0 0 -1 -1 1 1 0 -0 -0 -0 -0 -0 -0 -0 -0 -0 -0 -0 -0 -0 -0 -0 -0 nan
nan 0 0 0 0 0 0 0 0 0 0 -0 0 -0 -0 -0 -0 -0 -1 -1 0 -0 0 0 0 0 0 0 -0 -0 -0 -0 -0 -0 -0 -0 -0 -0 -0 -0 -0 -0 nan
nan 0 0 0 0 0 0 0 0 -0 -0 -0 -0 -0 -0 -0 -0 -0 -0 -0 -0 -0 0 -0 -0 -0 -0 0 -0 -0 -0 -0 -0 -0 -0 -0 -0 -0 -0 -0 -0 -0 nan
nan -0 -0 -0 0 0 0 0 0 0 -0 -0 -0 -0 -0 -0 -0 -0 -0 -0 -0 0 -0 -0 -0 -0 -0 -0 0 -0 -0 -0 -0 -0 -0 -0 -0 -0 -0 -0 -0 -0 nan
nan -0 -0 -0 -0 -0 0 0 0 0 0 -0 -0 -0 -0 0 -0 -0 -0 -0 -0 -0 -0 -0 -0 -0 -0 -0 -0 0 0 0 -0 -0 -0 -0 -0 -0 -0 -0 -1 -1 nan
nan -0 -0 -0 -0 -0 -0 0 0 -0 -0 0 -1 -1 0 0 -0 -0 -0 -0 -0 -0 -0 -0 -0 -0 -0 -0 -0 -0 1 0 0 -0 -0 -0 -0 -0 -0 -0 -1 -1 nan
nan -0 -0 -0 -0 0 0 0 0 0 -0 -0 -0 -1 -0 0 0 -0 0 -0 -0 -0 -0 -0 -0 -0 -0 -0 -0 -0 -0 -0 0 -0 -0 -0 -0 -0 -0 -0 -0 -0 nan
nan -0 -0 0 0 0 0 0 -0 0 0 -0 -0 -0 -0 -0 -0 0 0 0 0 0 0 -0 -0 -0 -0 -0 -0 -0 -0 -0 -0 0 -0 -0 -0 -1 -0 -0 -0 -0 nan
nan -0 0 0 -0 -0 0 0 0 0 0 0 0 -0 0 0 0 -0 -0 0 0 0 0 -0 -0 -0 -0 -0 -0 -0 -0 -0 -0 -0 -0 -0 -1 -1 -0 -0 -0 -0 nan
nan 0 0 -0 -0 -0 -0 -0 0 0 0 0 0 0 0 0 0 0 0 0 0 0 0 0 -0 -0 -0 -0 -0 -1 -1 -1 -1 -1 -1 -0 -1 0 -0 -0 -0 -0 nan
nan 0 0 -0 -0 -0 -0 -0 0 0 0 0 0 0 0 0 0 0 0 1 0 -0 0 0 -0 0 -0 -0 -0 -0 -1 -1 -1 -1 -1 -0 -0 0 0 -0 -0 -0 nan
nan 0 0 0 0 0 0 -0 -0 0 0 0 -0 -0 -0 -0 0 0 0 0 0 0 0 -0 0 -0 -0 -0 -0 -1 -1 -0 -1 -1 -0 -0 0 0 0 -0 -1 -1 nan
nan 0 0 0 0 0 0 0 0 -0 -0 -0 -0 -0 -0 -0 0 0 0 0 0 0 -0 0 -0 -0 -0 -0 -1 -1 -0 -0 -0 -0 -0 0 0 -0 -0 -0 -0 -0 nan
nan 0 0 0 0 0 0 0 0 0 0 -0 -0 0 0 0 -0 -0 -0 -0 -0 -0 -0 0 -0 -0 -0 -0 -0 -0 -0 -0 -0 0 -0 -0 -0 -0 -0 -0 0 1 nan
nan 0 0 0 0 0 0 0 0 0 0 0 0 0 0 0 -0 -0 -0 -0 -0 -0 0 -0 0 -0 -0 -0 -0 -0 -0 -0 -0 -0 -0 -0 -0 -0 -0 -0 0 1 nan
nan 0 0 0 0 0 0 0 0 0 0 0 0 0 0 -0 -0 -0 -0 -0 -0 -0 -0 -0 -0 -0 -0 0 0 -0 -0 -0 -0 -0 -0 -0 -0 -0 -0 -0 -0 -0 nan
nan 0 0 0 0 0 0 0 0 0 0 0 0 0 0 -0 -0 -0 -0 -0 -0 -0 -0 -0 -0 -0 -0 -0 -0 -0 -0 -0 0 -0 -0 -0 -0 -0 -0 -0 -0 -0 nan
nan 0 0 0 0 0 0 0 0 0 0 0 0 0 0 -0 -0 -0 -0 -0 -0 -0 -0 -0 -0 -0 -0 -0 -0 -0 -1 -0 -0 -0 -0 -0 -0 -0 -0 0 -0 -0 nan
nan 0 0 0 0 0 0 0 0 0 0 0 0 0 0 -0 -0 -0 -0 -0 -0 -0 -0 -0 -0 -0 0 0 -0 -1 -0 -0 -0 -0 -0 -0 -0 -0 -0 -0 -0 -0 nan
nan 0 0 0 0 0 0 0 0 0 0 0 0 0 0 -0 -0 -0 -0 -0 -0 -0 -0 -0 0 -0 -0 -0 -0 -0 0 0 0 0 0 -0 0 -0 -0 -0 -0 -0 nan
nan 0 0 0 0 0 0 0 0 0 0 0 0 0 0 0 0 -0 -0 -0 -0 -0 -0 -0 0 0 -0 -0 -0 0 0 -0 0 0 0 0 0 -0 -0 -1 -0 -0 nan
nan 0 0 0 0 0 0 0 0 0 0 0 0 0 0 0 0 -0 -0 -0 -0 -0 -0 0 -0 -0 0 -0 -0 -0 -0 -0 0 -0 -0 0 0 0 0 -0 -0 -0 nan
nan 0 0 0 0 0 0 0 0 0 0 0 0 0 0 0 0 -0 -0 -0 -0 -0 -0 0 0 0 0 0 -0 -0 -0 -0 -0 -0 -0 0 0 0 -0 0 -0 0 nan
nan 0 0 0 0 0 0 0 0 0 0 0 0 0 0 0 0 0 -0 -0 -0 -0 -0 -0 -0 -0 -0 -0 -0 -0 -0 -0 -0 -0 -0 -0 -0 -0 0 0 -0 0 nan
nan nan nan nan nan nan nan nan nan nan nan nan nan nan nan nan nan nan nan nan nan nan nan nan nan nan nan nan nan nan nan nan nan nan nan nan nan nan nan nan nan nan nan
Wind_Speed
5 6 5 4 5 5 5 4 4 2 4 4 6 8 9 9 11 14 15 15 16 16 16 17 18 19 19 19 19 19 18 19 17 17 17 18 19 19 19 19 18 18 19
6 6 5 5 3 4 4 5 4 2 1 7 10 10 11 12 14 15 15 14 14 13 15 17 19 21 21 19 19 19 19 18 18 17 18 18 19 19 19 19 20 20 20
7 7 6 5 5 6 7 6 6 5 7 12 13 14 15 15 15 15 14 13 14 15 15 17 20 22 24 20 19 19 18 18 19 18 20 19 18 19 20 20 20 20 19
8 7 7 6 6 7 8 11 9 8 12 16 17 16 15 15 14 14 12 13 12 12 13 16 19 22 23 21 19 17 18 19 19 17 18 17 19 20 20 20 19 19 19
7 7 6 7 7 9 11 11 12 9 15 17 17 15 14 13 12 11 11 11 10 11 13 16 19 21 22 22 20 18 18 18 17 17 15 17 18 19 19 19 20 20 20
6 7 8 9 11 13 15 14 12 14 18 19 18 15 13 10 8 7 8 9 10 10 12 15 18 21 22 22 22 19 18 17 17 16 16 17 19 19 20 20 20 22 22
6 7 9 11 13 15 15 15 14 15 18 17 16 15 12 7 5 4 5 6 7 9 12 15 18 21 23 23 23 21 19 17 16 16 16 17 18 18 19 20 21 21 22
7 8 10 14 15 17 17 16 15 18 17 16 10 9 6 4 2 1 3 4 6 8 11 15 19 21 23 24 24 22 19 18 16 16 16 18 18 19 19 21 22 21 21
7 11 13 15 16 16 17 17 14 15 16 16 12 3 3 2 2 3 4 5 6 7 11 14 18 21 23 24 23 22 20 19 18 16 17 16 18 17 20 22 21 22 22
8 10 11 12 14 15 16 15 16 18 16 14 12 6 3 3 3 2 6 7 7 8 10 13 18 20 23 23 22 21 19 19 18 17 16 16 17 19 20 21 21 21 20
8 10 11 10 11 13 14 15 17 19 19 17 14 12 9 8 10 7 4 6 8 9 10 13 17 20 22 22 21 20 19 18 19 19 16 15 17 19 21 21 20 20 20
9 10 10 11 12 12 12 13 17 20 21 20 18 15 14 13 12 9 7 7 6 9 11 13 15 19 22 21 20 19 19 19 18 18 15 14 19 17 18 19 20 21 20
10 11 11 11 11 11 11 11 11 13 17 18 19 17 15 12 7 6 6 5 3 7 8 10 14 17 19 19 19 19 18 18 18 17 15 15 17 18 19 18 20 20 20
10 11 11 12 11 10 10 10 10 10 11 11 11 9 7 4 2 1 1 2 3 4 6 8 14 16 18 17 18 17 16 16 17 16 15 15 16 20 20 19 19 19 17
11 12 12 12 13 12 12 11 10 10 11 10 9 7 5 3 3 2 3 4 3 1 1 9 10 15 16 16 17 16 15 16 16 15 14 15 17 19 19 19 19 20 19
13 14 14 14 13 13 12 12 11 11 10 9 8 6 5 4 4 4 4 5 6 5 2 7 10 12 15 16 16 15 14 14 15 15 12 14 17 19 20 20 20 20 20
15 15 15 14 13 13 14 13 12 11 10 9 8 7 5 5 5 5 6 7 8 7 6 9 10 12 13 13 13 13 12 12 13 13 11 13 16 18 20 20 21 22 21
17 17 16 15 15 14 14 13 12 12 10 9 8 7 5 5 5 5 7 8 7 8 9 9 10 11 12 14 14 12 11 10 12 12 10 11 15 17 18 19 20 21 21
19 19 18 17 15 15 14 14 13 11 11 9 7 7 5 4 5 6 7 7 8 10 10 11 11 12 12 12 11 9 11 8 12 12 11 11 14 17 17 16 19 20 20
21 21 20 18 17 16 15 15 14 12 10 9 8 6 5 4 5 5 6 7 9 10 11 12 12 12 12 13 12 10 10 8 7 13 12 10 13 15 17 15 16 19 20
22 22 22 21 19 18 17 16 14 12 10 9 8 6 4 3 3 4 7 7 9 10 11 11 12 12 12 12 12 11 11 9 6 13 9 10 10 11 16 17 16 17 19
24 25 24 22 22 20 18 16 14 12 11 10 8 6 5 3 1 3 5 6 7 9 10 11 11 11 10 10 10 10 13 14 7 10 10 8 11 8 12 17 16 16 18
26 26 25 25 23 21 20 18 16 14 12 11 9 7 6 4 1 2 4 5 7 9 10 11 11 10 8 8 9 10 11 12 10 9 11 7 11 8 9 12 18 18 15
28 28 27 26 24 23 21 19 18 16 15 13 11 9 7 5 3 1 4 5 7 9 10 12 11 10 8 7 7 9 10 11 8 7 11 8 13 9 6 12 18 19 17
29 29 28 27 26 24 23 21 20 19 17 14 12 10 8 6 4 2 3 4 5 8 10 11 11 10 9 5 5 8 10 11 9 5 12 11 12 9 2 16 16 18 17
28 27 28 28 26 25 24 23 22 20 18 16 14 12 10 8 5 4 4 4 5 7 8 10 11 12 9 6 5 6 9 9 9 5 11 10 12 13 6 13 14 17 17
Wind_Direction
204 210 178 189 211 196 197 179 153 131 103 73 88 96 96 93 92 93 93 105 105 90 71 68 59 49 42 37 34 33 30 31 24 29 26 23 21 17 16 17 16 13 10
209 215 222 224 217 199 206 194 138 108 129 119 114 106 102 97 91 90 91 92 91 86 71 60 49 41 39 36 35 31 32 29 27 27 25 21 20 17 16 15 12 12 12
218 215 216 223 210 200 195 194 172 167 157 132 123 116 104 96 90 84 85 87 71 59 54 45 37 31 29 33 35 33 28 23 24 23 23 19 19 18 16 14 11 9 5
228 222 219 215 203 189 189 183 176 178 150 140 129 119 109 100 88 78 71 68 62 59 39 35 29 24 22 25 34 32 28 24 17 25 18 14 15 17 15 11 9 4 1
215 210 204 198 184 171 171 175 168 178 156 144 134 123 112 104 92 76 60 52 45 39 28 22 20 18 17 21 25 28 27 24 17 18 18 18 13 14 11 7 8 4 2
193 181 166 163 163 168 172 171 173 162 160 151 137 127 119 104 87 72 53 33 24 18 16 12 12 13 14 16 18 21 23 23 17 15 14 14 15 12 8 8 7 4 2
156 154 152 153 156 161 175 179 178 172 165 159 146 130 120 113 91 61 30 8 2 359 1 1 6 10 10 12 13 13 13 14 17 16 15 12 15 8 9 8 4 1 2
141 144 143 147 150 162 177 190 193 175 181 168 157 135 131 103 70 354 328 328 333 341 348 354 1 4 8 8 8 7 9 9 16 15 15 16 12 12 9 6 5 7 7
144 152 155 161 164 177 187 193 203 204 194 192 184 159 139 162 200 280 283 284 302 323 337 348 355 0 4 4 3 2 6 9 13 19 17 18 16 12 9 10 10 11 10
166 164 169 174 170 182 193 202 213 213 219 217 207 220 263 298 200 217 274 272 284 309 326 340 351 356 359 1 1 1 6 12 11 13 18 21 19 10 13 13 17 14 16
177 177 186 175 177 188 197 210 218 220 224 230 233 242 269 292 289 261 242 273 284 296 318 331 344 352 357 359 357 0 9 15 13 13 19 24 14 15 14 19 20 16 17
180 179 173 171 176 182 193 209 222 228 229 231 239 250 264 281 286 258 277 284 260 297 313 329 343 348 354 356 359 1 9 11 11 13 22 17 12 15 17 18 19 17 20
189 179 173 176 175 176 186 196 204 210 219 226 236 248 262 266 265 263 269 285 280 302 317 335 344 347 351 357 1 5 9 8 11 12 14 12 17 17 18 22 21 20 23
185 181 178 177 165 168 170 172 176 183 188 200 215 220 214 203 187 202 286 333 344 322 329 340 345 344 352 359 5 8 7 6 10 9 5 14 19 19 19 20 18 22 16
186 183 178 179 168 166 163 158 161 167 164 169 170 167 156 144 124 91 51 33 31 71 0 347 345 344 354 1 6 8 5 6 7 7 5 15 23 19 20 20 18 15 17
189 188 184 178 170 165 164 164 166 164 161 158 154 148 141 126 98 74 57 44 37 33 25 351 352 354 358 2 5 6 4 6 8 9 11 21 20 20 20 20 19 19 18
192 192 187 182 174 171 171 169 167 163 158 156 155 143 129 110 89 71 52 41 35 29 24 11 5 2 1 2 3 5 4 10 10 14 18 24 22 21 19 21 22 20 18
193 194 191 189 182 175 176 172 171 165 160 157 152 137 128 109 80 59 47 39 27 26 24 17 10 7 1 0 6 9 9 13 16 15 23 24 23 21 17 18 20 20 21
196 194 194 195 190 182 181 179 176 172 166 160 155 143 134 108 73 53 44 32 22 24 19 19 12 6 0 4 16 23 21 20 17 22 24 22 21 19 14 13 18 20 22
198 198 197 196 194 189 186 188 184 179 172 166 164 157 142 105 71 50 37 25 22 20 16 15 10 6 1 2 18 26 15 16 15 20 16 17 18 12 10 14 19 22 21
200 200 201 197 195 194 194 192 189 185 179 175 176 167 153 115 73 40 32 22 19 18 15 9 5 5 359 6 17 19 18 20 2 15 19 11 14 12 12 11 17 18 16
202 201 201 202 200 200 195 194 195 192 187 183 184 184 181 167 135 47 28 22 18 15 15 9 3 1 358 6 17 18 11 21 21 7 20 6 11 2 7 8 10 9 14
203 203 203 204 203 203 199 199 197 195 194 195 194 197 199 193 210 32 12 15 14 14 14 4 1 359 355 3 18 20 9 12 7 9 18 12 359 350 349 358 360 1 8
206 207 206 206 205 204 203 203 202 201 201 202 202 205 206 207 215 348 353 358 6 7 6 4 0 358 357 3 8 10 14 10 1 9 18 19 5 8 8 0 1 1 360
206 208 209 209 206 206 205 206 206 206 207 207 210 210 211 216 223 273 327 339 354 357 359 358 357 2 5 8 10 4 3 9 16 20 14 8 9 9 341 4 1 5 357
211 210 211 211 211 211 210 209 209 211 211 212 215 216 215 221 230 257 295 316 334 344 352 352 356 358 358 360 356 360 3 5 15 21 0 5 3 15 11 5 3 3 5
Height
1579 1580 1582 1583 1584 1585 1586 1587 1587 1588 1589 1588 1588 1588 1588 1588 1589 1589 1590 1589 1587 1588 1587 1585 1584 1582 1579 1577 1574 1571 1569 1566 1562 1560 1558 1555 1552 1550 1548 1544 1541 1538 1535
1577 1579 1580 1581 1583 1585 1587 1588 1588 1589 1590 1589 1589 1589 1589 1589 1590 1591 1591 1591 1589 1588 1587 1585 1583 1581 1580 1578 1575 1573 1571 1568 1564 1562 1558 1555 1553 1551 1548 1544 1542 1538 1535
1577 1578 1579 1581 1582 1584 1587 1588 1589 1589 1589 1590 1589 1590 1590 1591 1591 1592 1593 1593 1592 1590 1589 1587 1585 1583 1580 1578 1576 1575 1572 1569 1565 1562 1559 1557 1554 1550 1548 1545 1542 1539 1536
1576 1577 1578 1579 1581 1583 1586 1587 1589 1591 1590 1591 1590 1591 1591 1592 1592 1594 1595 1594 1593 1592 1591 1589 1586 1584 1582 1579 1577 1576 1574 1571 1566 1563 1563 1557 1555 1551 1548 1545 1542 1539 1535
1574 1575 1577 1578 1580 1582 1585 1587 1589 1590 1592 1592 1591 1592 1593 1593 1593 1595 1595 1595 1594 1593 1592 1590 1587 1585 1583 1580 1577 1574 1573 1571 1569 1564 1561 1558 1555 1551 1548 1545 1542 1539 1534
1572 1573 1575 1576 1579 1583 1585 1587 1589 1590 1591 1593 1593 1593 1595 1596 1594 1595 1596 1595 1594 1593 1592 1591 1588 1585 1583 1580 1576 1573 1571 1570 1567 1565 1561 1557 1554 1551 1548 1544 1540 1537 1533
1573 1574 1575 1577 1579 1582 1586 1588 1589 1589 1593 1594 1592 1596 1595 1596 1595 1596 1596 1596 1595 1594 1592 1591 1588 1585 1583 1580 1576 1573 1570 1567 1566 1565 1561 1557 1554 1551 1547 1543 1539 1536 1532
1572 1574 1575 1577 1579 1582 1584 1587 1590 1589 1593 1595 1596 1596 1597 1598 1596 1596 1596 1595 1595 1594 1592 1590 1588 1586 1583 1579 1576 1573 1570 1567 1565 1563 1560 1557 1554 1550 1547 1543 1539 1535 1531
1572 1573 1574 1576 1578 1581 1583 1586 1589 1591 1592 1594 1596 1597 1596 1598 1596 1596 1595 1594 1594 1593 1592 1590 1588 1585 1582 1579 1576 1573 1569 1567 1564 1561 1559 1557 1553 1550 1546 1542 1538 1535 1532
1571 1572 1574 1576 1578 1581 1583 1585 1588 1590 1592 1594 1596 1596 1596 1596 1596 1597 1595 1594 1593 1593 1592 1590 1588 1585 1582 1579 1575 1573 1570 1566 1563 1561 1558 1556 1554 1549 1545 1541 1538 1535 1532
1570 1571 1574 1574 1575 1579 1582 1585 1587 1589 1591 1594 1595 1596 1596 1596 1595 1595 1594 1593 1592 1592 1591 1590 1587 1584 1582 1578 1575 1572 1569 1566 1563 1560 1558 1555 1552 1547 1544 1542 1539 1536 1532
1570 1571 1572 1574 1575 1578 1581 1583 1585 1587 1590 1592 1594 1595 1595 1595 1594 1593 1593 1592 1592 1591 1590 1589 1586 1584 1581 1578 1575 1571 1568 1565 1563 1560 1557 1555 1551 1548 1545 1541 1539 1536 1532
1569 1570 1571 1573 1574 1577 1579 1581 1584 1585 1588 1590 1592 1593 1593 1593 1592 1592 1592 1592 1592 1590 1589 1588 1586 1583 1581 1577 1574 1570 1567 1565 1563 1560 1557 1554 1551 1548 1544 1541 1538 1535 1532
1568 1570 1571 1573 1573 1576 1579 1581 1582 1584 1586 1588 1590 1591 1592 1592 1591 1592 1592 1592 1591 1590 1589 1588 1585 1582 1579 1576 1573 1570 1568 1566 1562 1560 1557 1554 1551 1548 1544 1541 1538 1535 1532
1567 1570 1571 1574 1573 1575 1578 1580 1582 1585 1586 1588 1589 1590 1590 1591 1591 1591 1591 1591 1590 1591 1590 1587 1585 1581 1578 1575 1573 1570 1568 1565 1563 1560 1557 1554 1552 1549 1545 1542 1538 1535 1531
1565 1569 1571 1573 1573 1575 1578 1581 1583 1585 1586 1587 1588 1589 1590 1591 1591 1591 1590 1590 1589 1589 1588 1586 1584 1580 1577 1574 1572 1570 1567 1565 1563 1560 1557 1555 1552 1549 1546 1543 1539 1535 1531
1564 1568 1570 1572 1573 1575 1578 1580 1582 1584 1586 1587 1588 1590 1590 1590 1591 1591 1590 1589 1588 1588 1586 1584 1582 1579 1576 1574 1573 1570 1568 1566 1564 1561 1558 1556 1553 1550 1547 1544 1540 1536 1532
1562 1566 1569 1572 1572 1574 1578 1580 1582 1583 1585 1587 1588 1589 1590 1590 1591 1590 1589 1588 1588 1587 1585 1583 1581 1579 1576 1574 1572 1570 1568 1566 1564 1561 1559 1556 1554 1551 1548 1545 1542 1538 1534
1559 1563 1566 1570 1572 1573 1576 1580 1582 1583 1584 1586 1588 1588 1589 1590 1590 1590 1589 1588 1587 1586 1584 1582 1580 1578 1575 1573 1572 1570 1568 1566 1564 1561 1559 1557 1554 1552 1549 1546 1543 1539 1535
1556 1560 1564 1567 1571 1572 1575 1578 1580 1582 1583 1585 1587 1588 1588 1589 1589 1589 1588 1588 1587 1585 1583 1581 1579 1577 1575 1572 1570 1569 1569 1566 1564 1561 1559 1557 1555 1553 1550 1547 1544 1540 1537
1553 1558 1561 1565 1568 1571 1573 1576 1579 1581 1582 1584 1586 1587 1588 1588 1588 1588 1587 1587 1585 1584 1583 1581 1578 1576 1574 1572 1570 1568 1567 1565 1564 1561 1560 1558 1556 1554 1551 1548 1545 1542 1538
1549 1554 1558 1562 1565 1569 1571 1574 1577 1579 1581 1583 1584 1586 1587 1587 1587 1587 1587 1586 1585 1583 1581 1580 1578 1576 1574 1572 1570 1568 1566 1564 1564 1562 1560 1559 1556 1555 1553 1549 1545 1542 1539
1545 1550 1554 1559 1562 1566 1569 1572 1575 1577 1579 1581 1583 1584 1585 1585 1586 1585 1585 1585 1583 1582 1580 1579 1577 1575 1572 1571 1569 1568 1566 1564 1563 1561 1559 1558 1556 1554 1552 1550 1545 1542 1539
1541 1546 1550 1555 1559 1563 1566 1569 1573 1575 1576 1578 1580 1582 1582 1583 1584 1584 1584 1583 1582 1581 1579 1577 1575 1573 1571 1569 1568 1567 1565 1564 1562 1560 1559 1557 1555 1553 1552 1550 1546 1542 1539
1537 1542 1547 1551 1555 1559 1562 1566 1569 1572 1574 1576 1577 1579 1580 1581 1582 1582 1582 1581 1580 1580 1578 1576 1574 1572 1570 1568 1566 1566 1564 1563 1561 1560 1558 1557 1555 1552 1551 1549 1546 1543 1539
1534 1539 1543 1547 1552 1555 1558 1561 1566 1569 1571 1572 1575 1576 1577 1578 1579 1580 1580 1580 1579 1578 1577 1575 1573 1570 1568 1567 1566 1565 1564 1562 1560 1559 1558 1556 1554 1552 1550 1549 1546 1542 1539